Time,TemperatureF,DewpointF,PressureIn,WindDirection,WindDirectionDegrees,WindSpeedMPH,WindSpeedGustMPH,Humidity,HourlyPrecipIn,Conditions,Clouds,dailyrainin,SolarRadiationWatts/m^2,SoftwareType,DateUTC
2013-08-15 00:04:00,56.2,52.7,30.14,WSW,246,0.0,0.0,88,0.00,CLR,,0.00,0.0,WeatherDisplay:10.37,2013-08-15 05:04:00,
2013-08-15 00:09:00,56.1,52.6,30.14,WSW,246,0.0,0.0,88,0.00,CLR,,0.00,0.0,WeatherDisplay:10.37,2013-08-15 05:09:00,
2013-08-15 00:14:00,56.0,52.5,30.14,WSW,246,0.0,0.0,88,0.00,CLR,,0.00,0.0,WeatherDisplay:10.37,2013-08-15 05:14:00,
2013-08-15 00:19:00,55.9,52.4,30.14,WSW,246,0.0,0.0,88,0.00,CLR,,0.00,0.0,WeatherDisplay:10.37,2013-08-15 05:19:00,
2013-08-15 00:24:00,55.8,52.3,30.14,WSW,246,0.0,0.0,88,0.00,CLR,,0.00,0.0,WeatherDisplay:10.37,2013-08-15 05:24:00,
2013-08-15 00:29:00,55.7,52.5,30.14,WSW,246,0.0,0.0,89,0.00,CLR,,0.00,0.0,WeatherDisplay:10.37,2013-08-15 05:29:00,
2013-08-15 00:34:00,55.7,52.5,30.14,WSW,245,0.0,0.0,89,0.00,CLR,,0.00,0.0,WeatherDisplay:10.37,2013-08-15 05:34:00,
2013-08-15 00:39:00,55.6,52.4,30.14,WSW,246,0.0,0.1,89,0.00,CLR,,0.00,0.0,WeatherDisplay:10.37,2013-08-15 05:39:00,
2013-08-15 00:44:00,55.6,52.4,30.14,SW,223,0.0,0.0,89,0.00,CLR,,0.00,0.0,WeatherDisplay:10.37,2013-08-15 05:44:00,
2013-08-15 00:49:00,55.5,52.3,30.14,SSE,161,1.2,0.0,89,0.00,CLR,,0.00,0.0,WeatherDisplay:10.37,2013-08-15 05:49:00,
2013-08-15 00:54:00,55.4,52.2,30.14,South,172,0.0,0.0,89,0.00,CLR,,0.00,0.0,WeatherDisplay:10.37,2013-08-15 05:54:00,
2013-08-15 00:59:00,55.4,52.2,30.14,South,190,0.0,0.1,89,0.00,CLR,,0.00,0.0,WeatherDisplay:10.37,2013-08-15 05:59:00,
2013-08-15 01:04:00,55.4,52.5,30.14,South,190,0.0,0.0,90,0.00,CLR,,0.00,0.0,WeatherDisplay:10.37,2013-08-15 06:04:00,
2013-08-15 01:09:00,55.3,52.4,30.14,WNW,288,0.0,0.0,90,0.00,CLR,,0.00,0.0,WeatherDisplay:10.37,2013-08-15 06:09:00,
2013-08-15 01:14:00,55.3,52.4,30.14,WNW,288,0.0,0.0,90,0.00,CLR,,0.00,0.0,WeatherDisplay:10.37,2013-08-15 06:14:00,
2013-08-15 01:19:00,55.2,52.3,30.14,WNW,288,0.0,0.0,90,0.00,CLR,,0.00,0.0,WeatherDisplay:10.37,2013-08-15 06:19:00,
2013-08-15 01:24:00,55.1,52.2,30.14,WNW,288,0.0,0.0,90,0.00,CLR,,0.00,0.0,WeatherDisplay:10.37,2013-08-15 06:24:00,
2013-08-15 01:29:00,55.1,52.2,30.14,South,176,0.0,0.1,90,0.00,CLR,,0.00,0.0,WeatherDisplay:10.37,2013-08-15 06:29:00,
2013-08-15 01:34:00,55.2,52.3,30.14,SW,223,2.3,0.0,90,0.00,CLR,,0.00,0.0,WeatherDisplay:10.37,2013-08-15 06:34:00,
2013-08-15 01:39:00,55.2,52.3,30.14,SSW,201,3.5,3.5,90,0.00,CLR,,0.00,0.0,WeatherDisplay:10.37,2013-08-15 06:39:00,
2013-08-15 01:44:00,55.3,52.4,30.14,WNW,285,0.0,0.0,90,0.00,CLR,,0.00,0.0,WeatherDisplay:10.37,2013-08-15 06:44:00,
2013-08-15 01:49:00,55.3,52.4,30.13,SW,226,1.2,0.0,90,0.00,CLR,,0.00,0.0,WeatherDisplay:10.37,2013-08-15 06:49:00,
2013-08-15 01:54:00,55.3,52.4,30.13,SW,226,0.0,0.0,90,0.00,CLR,,0.00,0.0,WeatherDisplay:10.37,2013-08-15 06:54:00,
2013-08-15 01:59:00,55.2,52.3,30.13,SW,226,0.0,0.0,90,0.00,CLR,,0.00,0.0,WeatherDisplay:10.37,2013-08-15 06:59:00,
2013-08-15 02:04:00,55.2,52.3,30.13,SW,226,0.0,0.0,90,0.00,CLR,,0.00,0.0,WeatherDisplay:10.37,2013-08-15 07:04:00,
2013-08-15 02:09:00,55.1,52.2,30.13,SW,226,0.0,0.0,90,0.00,CLR,,0.00,0.0,WeatherDisplay:10.37,2013-08-15 07:09:00,
2013-08-15 02:14:00,55.1,52.2,30.13,SW,226,0.0,0.0,90,0.00,CLR,,0.00,0.0,WeatherDisplay:10.37,2013-08-15 07:14:00,
2013-08-15 02:19:00,55.0,52.1,30.13,SW,226,0.0,0.0,90,0.00,CLR,,0.00,0.0,WeatherDisplay:10.37,2013-08-15 07:19:00,
2013-08-15 02:24:00,54.9,52.3,30.13,SW,226,0.0,0.0,91,0.00,CLR,,0.00,0.0,WeatherDisplay:10.37,2013-08-15 07:24:00,
2013-08-15 02:29:00,54.9,52.3,30.13,SW,226,0.0,0.0,91,0.00,CLR,,0.00,0.0,WeatherDisplay:10.37,2013-08-15 07:29:00,
2013-08-15 02:34:00,54.9,52.3,30.13,NNE,16,0.0,0.0,91,0.00,CLR,,0.00,0.0,WeatherDisplay:10.37,2013-08-15 07:34:00,
2013-08-15 02:39:00,54.9,52.3,30.13,North,0,0.0,0.0,91,0.00,CLR,,0.00,0.0,WeatherDisplay:10.37,2013-08-15 07:39:00,
2013-08-15 02:44:00,54.9,52.3,30.13,North,0,0.0,0.0,91,0.00,CLR,,0.00,0.0,WeatherDisplay:10.37,2013-08-15 07:44:00,
2013-08-15 02:49:00,54.9,52.3,30.13,North,0,0.0,0.0,91,0.00,CLR,,0.00,0.0,WeatherDisplay:10.37,2013-08-15 07:49:00,
2013-08-15 02:54:00,54.9,52.3,30.13,North,0,0.0,0.0,91,0.00,CLR,,0.00,0.0,WeatherDisplay:10.37,2013-08-15 07:54:00,
2013-08-15 02:59:00,54.9,52.3,30.13,North,0,0.0,0.0,91,0.00,CLR,,0.00,0.0,WeatherDisplay:10.37,2013-08-15 07:59:00,
2013-08-15 03:04:00,54.9,52.3,30.13,North,0,0.0,0.0,91,0.00,CLR,,0.00,0.0,WeatherDisplay:10.37,2013-08-15 08:04:00,
2013-08-15 03:09:00,54.9,52.3,30.13,North,0,0.0,0.0,91,0.00,CLR,,0.00,0.0,WeatherDisplay:10.37,2013-08-15 08:09:00,
2013-08-15 03:14:00,54.9,52.3,30.13,North,0,0.0,0.0,91,0.00,CLR,,0.00,0.0,WeatherDisplay:10.37,2013-08-15 08:14:00,
2013-08-15 03:19:00,54.9,52.3,30.13,North,0,0.0,0.0,91,0.00,CLR,,0.00,0.0,WeatherDisplay:10.37,2013-08-15 08:19:00,
2013-08-15 03:24:00,54.9,52.3,30.12,North,0,0.0,0.0,91,0.00,CLR,,0.00,0.0,WeatherDisplay:10.37,2013-08-15 08:24:00,
2013-08-15 03:29:00,54.9,52.3,30.13,North,0,0.0,0.0,91,0.00,CLR,,0.00,0.0,WeatherDisplay:10.37,2013-08-15 08:29:00,
2013-08-15 03:34:00,54.9,52.3,30.12,North,0,0.0,0.0,91,0.00,CLR,,0.00,0.0,WeatherDisplay:10.37,2013-08-15 08:34:00,
2013-08-15 03:39:00,54.9,52.3,30.12,North,0,0.0,0.0,91,0.00,CLR,,0.00,0.0,WeatherDisplay:10.37,2013-08-15 08:39:00,
2013-08-15 03:44:00,54.9,52.3,30.13,North,0,0.0,0.0,91,0.00,CLR,,0.00,0.0,WeatherDisplay:10.37,2013-08-15 08:44:00,
2013-08-15 03:49:00,54.9,52.3,30.13,North,0,0.0,0.0,91,0.00,CLR,,0.00,0.0,WeatherDisplay:10.37,2013-08-15 08:49:00,
2013-08-15 03:54:00,54.9,52.3,30.13,North,0,0.0,0.0,91,0.00,CLR,,0.00,0.0,WeatherDisplay:10.37,2013-08-15 08:54:00,
2013-08-15 03:59:00,54.9,52.3,30.12,North,0,0.0,0.0,91,0.00,CLR,,0.00,0.0,WeatherDisplay:10.37,2013-08-15 08:59:00,
2013-08-15 04:04:00,54.9,52.3,30.12,North,0,0.0,0.0,91,0.00,CLR,,0.00,0.0,WeatherDisplay:10.37,2013-08-15 09:04:00,
2013-08-15 04:09:00,54.9,52.3,30.12,North,0,0.0,0.0,91,0.00,CLR,,0.00,0.0,WeatherDisplay:10.37,2013-08-15 09:09:00,
2013-08-15 04:14:00,54.9,52.3,30.12,North,0,0.0,0.0,91,0.00,CLR,,0.00,0.0,WeatherDisplay:10.37,2013-08-15 09:14:00,
2013-08-15 04:19:00,54.9,52.3,30.12,North,0,0.0,0.0,91,0.00,CLR,,0.00,0.0,WeatherDisplay:10.37,2013-08-15 09:19:00,
2013-08-15 04:24:00,54.9,52.3,30.12,North,0,0.0,0.0,91,0.00,CLR,,0.00,0.0,WeatherDisplay:10.37,2013-08-15 09:24:00,
2013-08-15 04:29:00,54.9,52.3,30.12,North,0,0.0,0.0,91,0.00,CLR,,0.00,0.0,WeatherDisplay:10.37,2013-08-15 09:29:00,
2013-08-15 04:34:00,54.9,52.3,30.12,North,0,0.0,0.0,91,0.00,CLR,,0.00,0.0,WeatherDisplay:10.37,2013-08-15 09:34:00,
2013-08-15 04:39:00,54.9,52.3,30.12,North,0,0.0,0.0,91,0.00,CLR,,0.00,0.0,WeatherDisplay:10.37,2013-08-15 09:39:00,
2013-08-15 04:44:00,54.9,52.3,30.12,North,0,0.0,0.0,91,0.00,CLR,,0.00,0.0,WeatherDisplay:10.37,2013-08-15 09:44:00,
2013-08-15 04:49:00,54.9,52.3,30.12,North,0,0.0,0.0,91,0.00,CLR,,0.00,0.0,WeatherDisplay:10.37,2013-08-15 09:49:00,
2013-08-15 04:54:00,54.9,52.3,30.12,North,0,0.0,0.0,91,0.00,CLR,,0.00,0.0,WeatherDisplay:10.37,2013-08-15 09:54:00,
2013-08-15 04:59:00,54.9,52.3,30.12,North,0,0.0,0.0,91,0.00,CLR,,0.00,0.0,WeatherDisplay:10.37,2013-08-15 09:59:00,
2013-08-15 05:04:00,56.6,53.7,30.12,West,277,0.0,0.0,90,0.00,CLR,,0.00,0.0,WeatherDisplay:10.37,2013-08-15 10:04:00,
2013-08-15 05:09:00,56.6,53.7,30.12,West,277,0.0,0.0,90,0.00,CLR,,0.00,0.0,WeatherDisplay:10.37,2013-08-15 10:09:00,
2013-08-15 05:14:00,56.6,53.7,30.12,West,277,0.0,0.0,90,0.00,CLR,,0.00,0.0,WeatherDisplay:10.37,2013-08-15 10:14:00,
2013-08-15 05:19:00,56.7,53.8,30.12,WNW,291,0.0,0.0,90,0.00,CLR,,0.00,0.0,WeatherDisplay:10.37,2013-08-15 10:19:00,
2013-08-15 05:24:00,56.7,53.8,30.12,WNW,287,0.0,0.0,90,0.00,CLR,,0.00,0.0,WeatherDisplay:10.37,2013-08-15 10:24:00,
2013-08-15 05:29:00,56.7,53.5,30.13,WNW,287,1.2,1.2,89,0.00,OVC,,0.00,0.0,WeatherDisplay:10.37,2013-08-15 10:29:00,
2013-08-15 05:34:00,56.8,53.6,30.12,WNW,287,0.0,0.1,89,0.00,OVC,,0.00,0.0,WeatherDisplay:10.37,2013-08-15 10:34:00,
2013-08-15 05:39:00,56.8,53.6,30.12,WNW,287,0.0,0.0,89,0.00,OVC,,0.00,0.0,WeatherDisplay:10.37,2013-08-15 10:39:00,
2013-08-15 05:44:00,56.8,53.6,30.13,WNW,287,0.0,0.0,89,0.00,OVC,,0.00,0.0,WeatherDisplay:10.37,2013-08-15 10:44:00,
2013-08-15 05:49:00,56.7,53.2,30.12,WNW,287,0.0,0.0,88,0.00,OVC,,0.00,0.0,WeatherDisplay:10.37,2013-08-15 10:49:00,
2013-08-15 05:54:00,56.6,53.1,30.13,WNW,287,0.0,0.0,88,0.00,OVC,,0.00,0.0,WeatherDisplay:10.37,2013-08-15 10:54:00,
2013-08-15 05:59:00,56.5,53.3,30.13,WNW,287,0.0,0.0,89,0.00,OVC,,0.00,0.0,WeatherDisplay:10.37,2013-08-15 10:59:00,
2013-08-15 06:04:00,56.4,53.2,30.12,WNW,287,0.0,0.0,89,0.00,SCT,,0.00,5.0,WeatherDisplay:10.37,2013-08-15 11:04:00,
2013-08-15 06:09:00,56.3,53.1,30.13,WNW,287,0.0,0.0,89,0.00,BKN,,0.00,7.0,WeatherDisplay:10.37,2013-08-15 11:09:00,
2013-08-15 06:14:00,56.3,53.1,30.12,WNW,287,0.0,0.0,89,0.00,BKN,,0.00,11.0,WeatherDisplay:10.37,2013-08-15 11:14:00,
2013-08-15 06:19:00,56.2,53.0,30.13,WNW,287,0.0,0.0,89,0.00,BKN,,0.00,14.0,WeatherDisplay:10.37,2013-08-15 11:19:00,
2013-08-15 06:24:00,56.1,52.9,30.13,WNW,287,0.0,0.0,89,0.00,BKN,,0.00,16.0,WeatherDisplay:10.37,2013-08-15 11:24:00,
2013-08-15 06:29:00,56.0,52.8,30.13,WNW,287,0.0,0.0,89,0.00,BKN,,0.00,21.0,WeatherDisplay:10.37,2013-08-15 11:29:00,
2013-08-15 06:34:00,56.0,53.1,30.13,WNW,287,0.0,0.0,90,0.00,BKN,,0.00,25.0,WeatherDisplay:10.37,2013-08-15 11:34:00,
2013-08-15 06:39:00,56.0,53.1,30.13,WNW,287,0.0,0.0,90,0.00,BKN,,0.00,26.0,WeatherDisplay:10.37,2013-08-15 11:39:00,
2013-08-15 06:44:00,56.0,53.1,30.13,WNW,287,0.0,0.0,90,0.00,BKN,,0.00,28.0,WeatherDisplay:10.37,2013-08-15 11:44:00,
2013-08-15 06:49:00,56.1,53.2,30.13,WNW,287,0.0,0.0,90,0.00,BKN,,0.00,32.0,WeatherDisplay:10.37,2013-08-15 11:49:00,
2013-08-15 06:54:00,56.2,53.3,30.13,WNW,287,0.0,0.0,90,0.00,BKN,,0.00,37.0,WeatherDisplay:10.37,2013-08-15 11:54:00,
2013-08-15 06:59:00,56.3,53.7,30.13,WNW,287,0.0,0.0,91,0.00,BKN,,0.00,40.0,WeatherDisplay:10.37,2013-08-15 11:59:00,
2013-08-15 07:04:00,56.4,53.8,30.13,WNW,287,0.0,0.0,91,0.00,BKN,,0.00,42.0,WeatherDisplay:10.37,2013-08-15 12:04:00,
2013-08-15 07:09:00,56.5,53.9,30.13,WNW,287,0.0,0.0,91,0.00,BKN,,0.00,47.0,WeatherDisplay:10.37,2013-08-15 12:09:00,
2013-08-15 07:14:00,56.6,54.0,30.13,WNW,287,0.0,0.0,91,0.00,BKN,,0.00,84.0,WeatherDisplay:10.37,2013-08-15 12:14:00,
2013-08-15 07:19:00,56.8,54.2,30.13,WNW,287,1.2,0.0,91,0.00,BKN,,0.00,109.0,WeatherDisplay:10.37,2013-08-15 12:19:00,
2013-08-15 07:24:00,57.1,54.5,30.14,WNW,287,1.2,0.0,91,0.00,SCT,,0.00,139.0,WeatherDisplay:10.37,2013-08-15 12:24:00,
2013-08-15 07:29:00,57.7,55.1,30.14,WNW,287,0.0,0.0,91,0.00,SCT,,0.00,118.0,WeatherDisplay:10.37,2013-08-15 12:29:00,
2013-08-15 07:34:00,58.2,55.3,30.14,South,188,0.0,0.0,90,0.00,SCT,,0.00,65.0,WeatherDisplay:10.37,2013-08-15 12:34:00,
2013-08-15 07:39:00,58.6,55.7,30.14,WSW,254,3.5,0.0,90,0.00,BKN,,0.00,62.0,WeatherDisplay:10.37,2013-08-15 12:39:00,
2013-08-15 07:44:00,58.9,55.7,30.14,WSW,254,0.0,0.0,89,0.00,BKN,,0.00,76.0,WeatherDisplay:10.37,2013-08-15 12:44:00,
2013-08-15 07:49:00,59.1,55.9,30.14,WSW,254,0.0,0.0,89,0.00,BKN,,0.00,93.0,WeatherDisplay:10.37,2013-08-15 12:49:00,
2013-08-15 07:54:00,59.1,55.5,30.14,WSW,253,0.0,0.0,88,0.00,BKN,,0.00,91.0,WeatherDisplay:10.37,2013-08-15 12:54:00,
2013-08-15 07:59:00,59.4,55.5,30.14,WSW,254,0.0,0.0,87,0.00,BKN,,0.00,93.0,WeatherDisplay:10.37,2013-08-15 12:59:00,
2013-08-15 08:04:00,59.5,55.6,30.14,WSW,254,1.2,0.0,87,0.00,BKN,,0.00,104.0,WeatherDisplay:10.37,2013-08-15 13:04:00,
2013-08-15 08:09:00,59.7,55.8,30.14,WSW,253,0.0,0.0,87,0.00,BKN,,0.00,118.0,WeatherDisplay:10.37,2013-08-15 13:09:00,
2013-08-15 08:14:00,60.0,55.8,30.14,WSW,254,1.2,0.0,86,0.00,BKN,,0.00,72.0,WeatherDisplay:10.37,2013-08-15 13:14:00,
2013-08-15 08:19:00,60.1,55.9,30.14,WSW,254,0.0,0.0,86,0.00,BKN,,0.00,76.0,WeatherDisplay:10.37,2013-08-15 13:19:00,
2013-08-15 08:24:00,60.4,56.2,30.14,WSW,254,1.2,1.2,86,0.00,BKN,,0.00,72.0,WeatherDisplay:10.37,2013-08-15 13:24:00,
2013-08-15 08:29:00,60.7,56.5,30.14,WSW,254,2.0,2.0,86,0.00,BKN,,0.00,69.0,WeatherDisplay:10.37,2013-08-15 13:29:00,
2013-08-15 08:34:00,61.0,56.8,30.14,West,265,1.2,0.0,86,0.00,BKN,,0.00,63.0,WeatherDisplay:10.37,2013-08-15 13:34:00,
2013-08-15 08:39:00,61.4,56.8,30.14,West,262,0.0,0.0,85,0.00,BKN,,0.00,77.0,WeatherDisplay:10.37,2013-08-15 13:39:00,
2013-08-15 08:44:00,61.7,57.1,30.14,West,261,0.0,0.0,85,0.00,BKN,,0.00,69.0,WeatherDisplay:10.37,2013-08-15 13:44:00,
2013-08-15 08:49:00,62.0,57.4,30.14,West,261,0.0,0.0,85,0.00,BKN,,0.00,69.0,WeatherDisplay:10.37,2013-08-15 13:49:00,
2013-08-15 08:54:00,62.4,57.8,30.14,West,265,0.0,0.3,85,0.00,BKN,,0.00,76.0,WeatherDisplay:10.37,2013-08-15 13:54:00,
2013-08-15 08:59:00,62.7,57.8,30.14,West,262,0.0,1.0,84,0.00,BKN,,0.00,121.0,WeatherDisplay:10.37,2013-08-15 13:59:00,
2013-08-15 09:05:00,63.1,58.5,30.14,West,260,0.0,1.0,85,0.00,BKN,,0.00,204.0,WeatherDisplay:10.37,2013-08-15 14:05:00,
2013-08-15 09:10:00,63.6,59.0,30.14,West,260,0.0,0.0,85,0.00,BKN,,0.00,167.0,WeatherDisplay:10.37,2013-08-15 14:10:00,
2013-08-15 09:15:00,64.1,59.2,30.14,West,260,0.0,0.0,84,0.00,BKN,,0.00,188.0,WeatherDisplay:10.37,2013-08-15 14:15:00,
2013-08-15 09:20:00,64.5,59.2,30.14,West,260,0.0,2.0,83,0.00,BKN,,0.00,424.0,WeatherDisplay:10.37,2013-08-15 14:20:00,
2013-08-15 09:25:00,65.1,58.8,30.14,West,261,0.0,0.0,80,0.00,BKN,,0.00,306.0,WeatherDisplay:10.37,2013-08-15 14:25:00,
2013-08-15 09:30:00,65.5,58.8,30.14,West,261,0.0,0.0,79,0.00,SCT,,0.00,271.0,WeatherDisplay:10.37,2013-08-15 14:30:00,
2013-08-15 09:35:00,66.1,59.4,30.14,West,262,0.0,0.0,79,0.00,BKN,,0.00,471.0,WeatherDisplay:10.37,2013-08-15 14:35:00,
2013-08-15 09:40:00,67.0,60.3,30.14,West,262,1.2,1.2,79,0.00,SCT,,0.00,622.0,WeatherDisplay:10.37,2013-08-15 14:40:00,
2013-08-15 09:45:00,68.1,60.6,30.14,West,261,0.0,0.0,77,0.00,CLR,,0.00,629.0,WeatherDisplay:10.37,2013-08-15 14:45:00,
2013-08-15 09:51:00,68.7,60.5,30.14,West,262,1.2,1.2,75,0.00,CLR,,0.00,638.0,WeatherDisplay:10.37,2013-08-15 14:51:00,
2013-08-15 09:56:00,69.3,61.4,30.14,West,261,0.0,0.0,76,0.00,CLR,,0.00,657.0,WeatherDisplay:10.37,2013-08-15 14:56:00,
2013-08-15 10:01:00,69.9,62.0,30.14,West,262,0.0,0.0,76,0.00,FEW,,0.00,592.0,WeatherDisplay:10.37,2013-08-15 15:01:00,
2013-08-15 10:06:00,70.6,61.5,30.13,West,262,0.0,0.0,73,0.00,FEW,,0.00,684.0,WeatherDisplay:10.37,2013-08-15 15:06:00,
2013-08-15 10:11:00,70.9,61.8,30.13,West,261,0.0,0.0,73,0.00,CLR,,0.00,668.0,WeatherDisplay:10.37,2013-08-15 15:11:00,
2013-08-15 10:16:00,71.4,61.9,30.13,West,262,0.0,0.0,72,0.00,FEW,,0.00,557.0,WeatherDisplay:10.37,2013-08-15 15:16:00,
2013-08-15 10:21:00,71.4,61.1,30.13,West,262,0.0,0.0,70,0.00,FEW,,0.00,441.0,WeatherDisplay:10.37,2013-08-15 15:21:00,
2013-08-15 10:26:00,71.4,60.7,30.13,West,261,0.0,0.0,69,0.00,SCT,,0.00,394.0,WeatherDisplay:10.37,2013-08-15 15:26:00,
2013-08-15 10:31:00,71.4,59.9,30.13,West,261,0.0,0.1,67,0.00,SCT,,0.00,689.0,WeatherDisplay:10.37,2013-08-15 15:31:00,
2013-08-15 10:36:00,71.5,61.2,30.13,West,262,0.0,0.0,70,0.00,FEW,,0.00,745.0,WeatherDisplay:10.37,2013-08-15 15:36:00,
2013-08-15 10:41:00,71.9,59.9,30.13,West,262,1.2,1.2,66,0.00,CLR,,0.00,766.0,WeatherDisplay:10.37,2013-08-15 15:41:00,
2013-08-15 10:46:00,72.5,60.1,30.13,West,262,0.0,0.0,65,0.00,CLR,,0.00,744.0,WeatherDisplay:10.37,2013-08-15 15:46:00,
2013-08-15 10:51:00,73.1,61.1,30.13,West,262,1.2,1.2,66,0.00,CLR,,0.00,810.0,WeatherDisplay:10.37,2013-08-15 15:51:00,
2013-08-15 10:56:00,73.7,58.0,30.13,West,262,1.2,1.2,58,0.00,CLR,,0.00,687.0,WeatherDisplay:10.37,2013-08-15 15:56:00,
2013-08-15 11:01:00,73.3,58.6,30.13,North,349,1.2,0.0,60,0.00,CLR,,0.00,782.0,WeatherDisplay:10.37,2013-08-15 16:01:00,
2013-08-15 11:06:00,73.5,60.6,30.13,WSW,249,1.0,0.0,64,0.00,CLR,,0.00,780.0,WeatherDisplay:10.37,2013-08-15 16:06:00,
2013-08-15 11:11:00,74.1,60.7,30.12,WSW,249,0.0,0.0,63,0.00,CLR,,0.00,788.0,WeatherDisplay:10.37,2013-08-15 16:11:00,
2013-08-15 11:17:00,75.1,60.7,30.12,WSW,249,1.2,0.0,61,0.00,CLR,,0.00,805.0,WeatherDisplay:10.37,2013-08-15 16:17:00,
2013-08-15 11:22:00,75.6,59.8,30.12,WSW,249,0.0,0.0,58,0.00,CLR,,0.00,817.0,WeatherDisplay:10.37,2013-08-15 16:22:00,
2013-08-15 11:27:00,75.4,60.1,30.12,WSW,249,0.0,0.0,59,0.00,SCT,,0.00,142.0,WeatherDisplay:10.37,2013-08-15 16:27:00,
2013-08-15 11:32:00,75.0,61.1,30.12,WSW,249,0.0,0.0,62,0.00,BKN,,0.00,357.0,WeatherDisplay:10.37,2013-08-15 16:32:00,
2013-08-15 11:37:00,74.4,59.1,30.12,WSW,249,1.2,0.0,59,0.00,BKN,,0.00,947.0,WeatherDisplay:10.37,2013-08-15 16:37:00,
2013-08-15 11:43:00,74.6,59.3,30.12,WSW,249,0.0,0.0,59,0.00,FEW,,0.00,986.0,WeatherDisplay:10.37,2013-08-15 16:43:00,
2013-08-15 11:48:00,74.4,59.1,30.12,WSW,249,0.0,0.0,59,0.00,SCT,,0.00,211.0,WeatherDisplay:10.37,2013-08-15 16:48:00,
2013-08-15 11:53:00,74.2,60.8,30.12,WSW,249,0.0,0.0,63,0.00,BKN,,0.00,128.0,WeatherDisplay:10.37,2013-08-15 16:53:00,
2013-08-15 11:58:00,73.8,60.9,30.12,WSW,249,0.0,0.0,64,0.00,BKN,,0.00,134.0,WeatherDisplay:10.37,2013-08-15 16:58:00,
2013-08-15 12:03:00,73.4,60.0,30.12,WSW,249,0.0,0.0,63,0.00,BKN,,0.00,279.0,WeatherDisplay:10.37,2013-08-15 17:03:00,
2013-08-15 12:08:00,73.1,58.8,30.12,WSW,249,0.0,0.0,61,0.00,BKN,,0.00,687.0,WeatherDisplay:10.37,2013-08-15 17:08:00,
2013-08-15 12:13:00,73.4,58.2,30.11,WSW,249,0.0,0.0,59,0.00,SCT,,0.00,668.0,WeatherDisplay:10.37,2013-08-15 17:13:00,
2013-08-15 12:18:00,74.1,57.9,30.11,WSW,249,0.0,0.0,57,0.00,FEW,,0.00,898.0,WeatherDisplay:10.37,2013-08-15 17:18:00,
2013-08-15 12:24:00,74.7,57.5,30.11,WSW,249,0.0,0.0,55,0.00,CLR,,0.00,930.0,WeatherDisplay:10.37,2013-08-15 17:24:00,
2013-08-15 12:29:00,75.6,57.3,30.11,WSW,249,1.2,1.2,53,0.00,CLR,,0.00,928.0,WeatherDisplay:10.37,2013-08-15 17:29:00,
2013-08-15 12:34:00,75.7,55.2,30.11,WSW,242,1.2,1.2,49,0.00,CLR,,0.00,837.0,WeatherDisplay:10.37,2013-08-15 17:34:00,
2013-08-15 12:39:00,75.3,57.0,30.11,WSW,243,0.0,0.0,53,0.00,SCT,,0.00,109.0,WeatherDisplay:10.37,2013-08-15 17:39:00,
2013-08-15 12:44:00,75.2,57.4,30.10,West,266,2.3,2.3,54,0.00,SCT,,0.00,976.0,WeatherDisplay:10.37,2013-08-15 17:44:00,
2013-08-15 12:49:00,75.2,55.3,30.10,WSW,256,0.0,1.0,50,0.00,FEW,,0.00,149.0,WeatherDisplay:10.37,2013-08-15 17:49:00,
2013-08-15 12:55:00,74.9,56.6,30.10,West,265,0.0,0.0,53,0.00,SCT,,0.00,139.0,WeatherDisplay:10.37,2013-08-15 17:55:00,
2013-08-15 13:00:00,75.0,56.7,30.10,West,266,0.0,0.0,53,0.00,BKN,,0.00,130.0,WeatherDisplay:10.37,2013-08-15 18:00:00,
2013-08-15 13:05:00,74.8,58.1,30.10,West,266,0.0,0.0,56,0.00,BKN,,0.00,1021.0,WeatherDisplay:10.37,2013-08-15 18:05:00,
2013-08-15 13:10:00,74.9,55.6,30.10,West,265,0.0,0.0,51,0.00,SCT,,0.00,1111.0,WeatherDisplay:10.37,2013-08-15 18:10:00,
2013-08-15 13:15:00,75.5,53.9,30.10,SW,234,0.0,0.0,47,0.00,CLR,,0.00,369.0,WeatherDisplay:10.37,2013-08-15 18:15:00,
2013-08-15 13:20:00,75.9,54.8,30.09,SW,226,3.5,0.0,48,0.00,FEW,,0.00,1071.0,WeatherDisplay:10.37,2013-08-15 18:20:00,
2013-08-15 13:26:00,76.3,56.8,30.09,SW,226,0.0,0.0,51,0.00,SCT,,0.00,202.0,WeatherDisplay:10.37,2013-08-15 18:26:00,
2013-08-15 13:31:00,76.0,58.7,30.09,SW,226,0.0,0.0,55,0.00,BKN,,0.00,178.0,WeatherDisplay:10.37,2013-08-15 18:31:00,
2013-08-15 13:36:00,75.5,58.7,30.09,SW,226,0.0,0.0,56,0.00,BKN,,0.00,178.0,WeatherDisplay:10.37,2013-08-15 18:36:00,
2013-08-15 13:41:00,75.0,57.2,30.09,SW,226,0.0,0.0,54,0.00,BKN,,0.00,213.0,WeatherDisplay:10.37,2013-08-15 18:41:00,
2013-08-15 13:46:00,74.6,56.9,30.09,SW,226,0.0,0.0,54,0.00,BKN,,0.00,262.0,WeatherDisplay:10.37,2013-08-15 18:46:00,
2013-08-15 13:51:00,74.3,56.6,30.09,SW,226,1.2,0.0,54,0.00,BKN,,0.00,188.0,WeatherDisplay:10.37,2013-08-15 18:51:00,
2013-08-15 13:57:00,74.1,56.9,30.09,SW,226,0.0,0.0,55,0.00,BKN,,0.00,179.0,WeatherDisplay:10.37,2013-08-15 18:57:00,
2013-08-15 14:02:00,73.8,58.1,30.09,SW,226,0.0,0.0,58,0.00,BKN,,0.00,162.0,WeatherDisplay:10.37,2013-08-15 19:02:00,
2013-08-15 14:07:00,73.6,59.8,30.09,SW,226,0.0,0.0,62,0.00,BKN,,0.00,260.0,WeatherDisplay:10.37,2013-08-15 19:07:00,
2013-08-15 14:13:00,74.6,60.3,30.09,SW,226,0.0,0.0,61,0.00,SCT,,0.00,935.0,WeatherDisplay:10.37,2013-08-15 19:13:00,
2013-08-15 14:18:00,75.8,58.5,30.09,West,260,5.0,5.0,55,0.00,CLR,,0.00,937.0,WeatherDisplay:10.37,2013-08-15 19:18:00,
2013-08-15 14:23:00,76.4,56.4,30.09,West,269,4.6,4.6,50,0.00,CLR,,0.00,1011.0,WeatherDisplay:10.37,2013-08-15 19:23:00,
2013-08-15 14:28:00,75.7,55.2,30.09,West,281,3.5,3.5,49,0.00,FEW,,0.00,221.0,WeatherDisplay:10.37,2013-08-15 19:28:00,
2013-08-15 14:33:00,75.1,55.2,30.08,West,281,0.0,0.0,50,0.00,BKN,,0.00,225.0,WeatherDisplay:10.37,2013-08-15 19:33:00,
2013-08-15 14:38:00,74.8,57.0,30.08,West,281,0.0,0.0,54,0.00,BKN,,0.00,227.0,WeatherDisplay:10.37,2013-08-15 19:38:00,
2013-08-15 14:44:00,74.7,58.0,30.08,West,281,0.0,0.0,56,0.00,BKN,,0.00,336.0,WeatherDisplay:10.37,2013-08-15 19:44:00,
2013-08-15 14:49:00,75.0,61.5,30.08,West,281,0.0,0.0,63,0.00,SCT,,0.00,1037.0,WeatherDisplay:10.37,2013-08-15 19:49:00,
2013-08-15 14:54:00,76.1,59.3,30.08,West,281,0.0,0.0,56,0.00,CLR,,0.00,946.0,WeatherDisplay:10.37,2013-08-15 19:54:00,
2013-08-15 14:59:00,76.3,58.4,30.08,NW,317,1.2,1.2,54,0.00,CLR,,0.00,401.0,WeatherDisplay:10.37,2013-08-15 19:59:00,
2013-08-15 15:04:00,76.1,59.8,30.08,South,179,1.0,1.0,57,0.00,SCT,,0.00,294.0,WeatherDisplay:10.37,2013-08-15 20:04:00,
2013-08-15 15:09:00,76.2,60.8,30.08,WNW,290,0.0,0.1,59,0.00,SCT,,0.00,823.0,WeatherDisplay:10.37,2013-08-15 20:09:00,
2013-08-15 15:14:00,76.9,59.0,30.08,WNW,286,0.0,2.0,54,0.00,CLR,,0.00,777.0,WeatherDisplay:10.37,2013-08-15 20:14:00,
2013-08-15 15:19:00,77.7,57.0,30.08,WSW,252,0.0,2.0,49,0.00,CLR,,0.00,758.0,WeatherDisplay:10.37,2013-08-15 20:19:00,
2013-08-15 15:25:00,77.7,59.7,30.07,West,269,1.0,0.0,54,0.00,CLR,,0.00,752.0,WeatherDisplay:10.37,2013-08-15 20:25:00,
2013-08-15 15:30:00,77.7,61.3,30.07,WSW,253,0.0,2.0,57,0.00,CLR,,0.00,765.0,WeatherDisplay:10.37,2013-08-15 20:30:00,
2013-08-15 15:35:00,77.5,57.4,30.07,WSW,255,1.2,1.2,50,0.00,CLR,,0.00,754.0,WeatherDisplay:10.37,2013-08-15 20:35:00,
2013-08-15 15:40:00,77.7,57.6,30.07,WSW,254,1.0,0.0,50,0.00,CLR,,0.00,613.0,WeatherDisplay:10.37,2013-08-15 20:40:00,
2013-08-15 15:45:00,77.8,60.8,30.07,WSW,255,2.3,2.3,56,0.00,CLR,,0.00,765.0,WeatherDisplay:10.37,2013-08-15 20:45:00,
2013-08-15 15:50:00,77.3,60.9,30.07,WSW,258,0.0,0.0,57,0.00,CLR,,0.00,765.0,WeatherDisplay:10.37,2013-08-15 20:50:00,
2013-08-15 15:55:00,77.5,57.9,30.07,West,280,3.0,3.0,51,0.00,CLR,,0.00,766.0,WeatherDisplay:10.37,2013-08-15 20:55:00,
2013-08-15 16:00:00,77.2,58.7,30.07,SSW,213,0.0,0.0,53,0.00,CLR,,0.00,506.0,WeatherDisplay:10.37,2013-08-15 21:00:00,
2013-08-15 16:05:00,77.3,57.8,30.07,SSW,213,1.2,1.2,51,0.00,FEW,,0.00,413.0,WeatherDisplay:10.37,2013-08-15 21:05:00,
2013-08-15 16:10:00,77.5,60.1,30.07,SSW,213,0.0,0.1,55,0.00,SCT,,0.00,272.0,WeatherDisplay:10.37,2013-08-15 21:10:00,
2013-08-15 16:15:00,77.4,57.3,30.07,WNW,292,3.5,3.5,50,0.00,SCT,,0.00,248.0,WeatherDisplay:10.37,2013-08-15 21:15:00,
2013-08-15 16:20:00,76.9,57.9,30.07,WSW,240,1.2,1.2,52,0.00,SCT,,0.00,206.0,WeatherDisplay:10.37,2013-08-15 21:20:00,
2013-08-15 16:25:00,76.3,57.4,30.07,SW,223,4.6,4.6,52,0.00,BKN,,0.00,206.0,WeatherDisplay:10.37,2013-08-15 21:25:00,
2013-08-15 16:30:00,76.5,59.6,30.07,WNW,290,2.3,0.0,56,0.00,SCT,,0.00,724.0,WeatherDisplay:10.37,2013-08-15 21:30:00,
2013-08-15 16:35:00,76.8,59.4,30.07,WSW,242,1.2,1.2,55,0.00,FEW,,0.00,656.0,WeatherDisplay:10.37,2013-08-15 21:35:00,
2013-08-15 16:40:00,77.4,60.0,30.07,WNW,288,1.2,1.2,55,0.00,CLR,,0.00,592.0,WeatherDisplay:10.37,2013-08-15 21:40:00,
2013-08-15 16:45:00,77.6,58.6,30.07,West,263,3.5,3.5,52,0.00,CLR,,0.00,534.0,WeatherDisplay:10.37,2013-08-15 21:45:00,
2013-08-15 16:50:00,77.4,56.7,30.07,WSW,247,3.5,3.5,49,0.00,CLR,,0.00,506.0,WeatherDisplay:10.37,2013-08-15 21:50:00,
2013-08-15 16:55:00,77.3,59.9,30.07,West,272,1.2,1.2,55,0.00,CLR,,0.00,494.0,WeatherDisplay:10.37,2013-08-15 21:55:00,
2013-08-15 17:01:00,77.3,57.2,30.07,SSW,203,0.0,0.0,50,0.00,CLR,,0.00,473.0,WeatherDisplay:10.37,2013-08-15 22:01:00,
2013-08-15 17:06:00,76.8,59.9,30.07,WNW,290,3.5,3.5,56,0.00,CLR,,0.00,450.0,WeatherDisplay:10.37,2013-08-15 22:06:00,
2013-08-15 17:11:00,76.4,59.5,30.07,SSW,213,4.6,4.6,56,0.00,CLR,,0.00,432.0,WeatherDisplay:10.37,2013-08-15 22:11:00,
2013-08-15 17:16:00,76.4,60.0,30.07,WNW,300,3.0,3.0,57,0.00,CLR,,0.00,425.0,WeatherDisplay:10.37,2013-08-15 22:16:00,
2013-08-15 17:21:00,76.4,58.0,30.07,WNW,296,3.5,3.5,53,0.00,CLR,,0.00,413.0,WeatherDisplay:10.37,2013-08-15 22:21:00,
2013-08-15 17:26:00,76.4,58.5,30.07,West,280,3.5,3.5,54,0.00,CLR,,0.00,366.0,WeatherDisplay:10.37,2013-08-15 22:26:00,
2013-08-15 17:31:00,76.5,59.1,30.07,WSW,244,1.2,0.0,55,0.00,CLR,,0.00,362.0,WeatherDisplay:10.37,2013-08-15 22:31:00,
2013-08-15 17:36:00,76.5,58.6,30.07,West,263,2.3,2.3,54,0.00,CLR,,0.00,353.0,WeatherDisplay:10.37,2013-08-15 22:36:00,
2013-08-15 17:41:00,76.4,58.5,30.07,SW,234,4.6,4.6,54,0.00,CLR,,0.00,336.0,WeatherDisplay:10.37,2013-08-15 22:41:00,
2013-08-15 17:46:00,76.3,59.9,30.07,West,277,3.5,3.5,57,0.00,CLR,,0.00,318.0,WeatherDisplay:10.37,2013-08-15 22:46:00,
2013-08-15 17:51:00,76.0,57.6,30.08,West,273,4.6,4.6,53,0.00,CLR,,0.00,315.0,WeatherDisplay:10.37,2013-08-15 22:51:00,
2013-08-15 17:56:00,76.0,58.7,30.07,West,267,3.5,3.5,55,0.00,CLR,,0.00,311.0,WeatherDisplay:10.37,2013-08-15 22:56:00,
2013-08-15 18:02:00,76.3,58.4,30.07,WSW,244,4.0,4.0,54,0.00,CLR,,0.00,304.0,WeatherDisplay:10.37,2013-08-15 23:02:00,
2013-08-15 18:07:00,76.6,60.7,30.07,North,350,0.0,0.0,58,0.00,CLR,,0.00,285.0,WeatherDisplay:10.37,2013-08-15 23:07:00,
2013-08-15 18:12:00,76.7,60.8,30.07,West,268,1.2,1.2,58,0.00,CLR,,0.00,271.0,WeatherDisplay:10.37,2013-08-15 23:12:00,
2013-08-15 18:17:00,76.5,59.1,30.07,West,277,1.2,1.2,55,0.00,CLR,,0.00,144.0,WeatherDisplay:10.37,2013-08-15 23:17:00,
2013-08-15 18:22:00,75.9,59.1,30.07,West,267,1.2,1.2,56,0.00,FEW,,0.00,113.0,WeatherDisplay:10.37,2013-08-15 23:22:00,
2013-08-15 18:27:00,75.3,60.0,30.07,WSW,237,0.0,0.0,59,0.00,SCT,,0.00,81.0,WeatherDisplay:10.37,2013-08-15 23:27:00,
2013-08-15 18:32:00,74.5,58.8,30.07,SW,215,3.5,3.5,58,0.00,BKN,,0.00,49.0,WeatherDisplay:10.37,2013-08-15 23:32:00,
2013-08-15 18:37:00,73.7,59.4,30.07,SW,215,0.0,0.0,61,0.00,BKN,,0.00,44.0,WeatherDisplay:10.37,2013-08-15 23:37:00,
2013-08-15 18:42:00,73.1,59.3,30.07,SW,216,0.0,0.0,62,0.00,BKN,,0.00,35.0,WeatherDisplay:10.37,2013-08-15 23:42:00,
2013-08-15 18:47:00,72.5,59.2,30.07,SW,216,0.0,0.0,63,0.00,BKN,,0.00,30.0,WeatherDisplay:10.37,2013-08-15 23:47:00,
2013-08-15 18:52:00,71.9,59.5,30.08,SW,215,0.0,0.0,65,0.00,BKN,,0.00,25.0,WeatherDisplay:10.37,2013-08-15 23:52:00,
2013-08-15 18:57:00,71.4,59.4,30.08,SW,216,0.0,0.0,66,0.00,BKN,,0.00,28.0,WeatherDisplay:10.37,2013-08-15 23:57:00,
2013-08-15 19:02:00,70.8,59.3,30.08,SW,216,0.0,0.0,67,0.00,BKN,,0.00,28.0,WeatherDisplay:10.37,2013-08-16 00:02:00,
2013-08-15 19:07:00,70.5,59.4,30.08,SW,216,0.0,0.0,68,0.00,BKN,,0.00,28.0,WeatherDisplay:10.37,2013-08-16 00:07:00,
2013-08-15 19:12:00,70.2,59.6,30.08,SW,216,0.0,0.0,69,0.00,BKN,,0.00,28.0,WeatherDisplay:10.37,2013-08-16 00:12:00,
2013-08-15 19:17:00,69.9,59.7,30.08,SW,215,0.0,0.0,70,0.00,BKN,,0.00,25.0,WeatherDisplay:10.37,2013-08-16 00:17:00,
2013-08-15 19:22:00,69.6,59.4,30.08,SW,216,0.0,0.0,70,0.00,BKN,,0.00,18.0,WeatherDisplay:10.37,2013-08-16 00:22:00,
2013-08-15 19:27:00,69.3,59.5,30.08,SW,215,0.0,0.0,71,0.00,BKN,,0.00,12.0,WeatherDisplay:10.37,2013-08-16 00:27:00,
2013-08-15 19:32:00,69.1,59.3,30.08,SW,215,0.0,0.0,71,0.00,BKN,,0.00,12.0,WeatherDisplay:10.37,2013-08-16 00:32:00,
2013-08-15 19:38:00,68.8,59.0,30.08,SW,216,0.0,0.0,71,0.00,BKN,,0.00,11.0,WeatherDisplay:10.37,2013-08-16 00:38:00,
2013-08-15 19:43:00,68.5,59.1,30.08,SW,216,0.0,0.0,72,0.00,BKN,,0.00,7.0,WeatherDisplay:10.37,2013-08-16 00:43:00,
2013-08-15 19:48:00,68.2,59.2,30.08,SW,216,0.0,0.0,73,0.00,BKN,,0.00,0.0,WeatherDisplay:10.37,2013-08-16 00:48:00,
2013-08-15 19:53:00,67.9,59.3,30.08,SW,215,0.0,0.0,74,0.00,OVC,,0.00,0.0,WeatherDisplay:10.37,2013-08-16 00:53:00,
2013-08-15 19:58:00,67.6,59.0,30.08,SW,215,0.0,0.0,74,0.00,OVC,,0.00,0.0,WeatherDisplay:10.37,2013-08-16 00:58:00,
2013-08-15 20:03:00,67.3,58.7,30.08,SW,216,0.0,0.0,74,0.00,CLR,,0.00,0.0,WeatherDisplay:10.37,2013-08-16 01:03:00,
2013-08-15 20:08:00,66.9,58.3,30.08,SW,216,0.0,0.0,74,0.00,CLR,,0.00,0.0,WeatherDisplay:10.37,2013-08-16 01:08:00,
2013-08-15 20:13:00,66.6,58.4,30.08,SW,216,0.0,0.0,75,0.00,CLR,,0.00,0.0,WeatherDisplay:10.37,2013-08-16 01:13:00,
2013-08-15 20:18:00,66.4,58.2,30.08,SW,215,0.0,0.0,75,0.00,CLR,,0.00,0.0,WeatherDisplay:10.37,2013-08-16 01:18:00,
2013-08-15 20:23:00,66.2,58.4,30.08,SW,216,0.0,0.0,76,0.00,CLR,,0.00,0.0,WeatherDisplay:10.37,2013-08-16 01:23:00,
2013-08-15 20:28:00,66.1,58.7,30.08,SW,216,0.0,0.0,77,0.00,CLR,,0.00,0.0,WeatherDisplay:10.37,2013-08-16 01:28:00,
2013-08-15 20:34:00,66.0,58.9,30.09,SW,216,0.0,0.0,78,0.00,CLR,,0.00,0.0,WeatherDisplay:10.37,2013-08-16 01:34:00,
2013-08-15 20:39:00,65.8,58.7,30.09,SW,216,0.0,0.0,78,0.00,CLR,,0.00,0.0,WeatherDisplay:10.37,2013-08-16 01:39:00,
2013-08-15 20:44:00,65.6,58.6,30.09,SW,216,0.0,0.0,78,0.00,CLR,,0.00,0.0,WeatherDisplay:10.37,2013-08-16 01:44:00,
2013-08-15 20:49:00,65.4,58.7,30.09,SW,216,0.0,0.0,79,0.00,CLR,,0.00,0.0,WeatherDisplay:10.37,2013-08-16 01:49:00,
2013-08-15 20:54:00,65.1,58.4,30.09,SW,215,0.0,0.0,79,0.00,CLR,,0.00,0.0,WeatherDisplay:10.37,2013-08-16 01:54:00,
2013-08-15 20:59:00,64.9,58.6,30.09,SW,216,0.0,0.0,80,0.00,CLR,,0.00,0.0,WeatherDisplay:10.37,2013-08-16 01:59:00,
2013-08-15 21:04:00,64.7,58.7,30.09,SW,216,0.0,0.0,81,0.00,CLR,,0.00,0.0,WeatherDisplay:10.37,2013-08-16 02:04:00,
2013-08-15 21:09:00,64.5,58.5,30.09,SW,216,0.0,0.0,81,0.00,CLR,,0.00,0.0,WeatherDisplay:10.37,2013-08-16 02:09:00,
2013-08-15 21:14:00,64.4,59.1,30.10,SW,215,0.0,0.0,83,0.00,CLR,,0.00,0.0,WeatherDisplay:10.37,2013-08-16 02:14:00,
2013-08-15 21:19:00,64.2,58.9,30.10,SW,215,0.0,0.0,83,0.00,CLR,,0.00,0.0,WeatherDisplay:10.37,2013-08-16 02:19:00,
2013-08-15 21:24:00,64.0,59.1,30.10,SW,215,0.0,0.0,84,0.00,CLR,,0.00,0.0,WeatherDisplay:10.37,2013-08-16 02:24:00,
2013-08-15 21:29:00,63.8,59.2,30.10,SW,216,0.0,0.0,85,0.00,CLR,,0.00,0.0,WeatherDisplay:10.37,2013-08-16 02:29:00,
2013-08-15 21:34:00,63.5,59.2,30.10,SW,216,0.0,0.0,86,0.00,CLR,,0.00,0.0,WeatherDisplay:10.37,2013-08-16 02:34:00,
2013-08-15 21:40:00,63.3,59.0,30.10,SW,215,0.0,0.0,86,0.00,CLR,,0.00,0.0,WeatherDisplay:10.37,2013-08-16 02:40:00,
2013-08-15 21:45:00,63.0,58.7,30.10,SW,216,0.0,0.0,86,0.00,CLR,,0.00,0.0,WeatherDisplay:10.37,2013-08-16 02:45:00,
2013-08-15 21:50:00,62.6,58.7,30.10,SW,215,0.0,0.0,87,0.00,CLR,,0.00,0.0,WeatherDisplay:10.37,2013-08-16 02:50:00,
2013-08-15 21:55:00,62.3,58.4,30.10,SW,216,0.0,0.0,87,0.00,CLR,,0.00,0.0,WeatherDisplay:10.37,2013-08-16 02:55:00,
2013-08-15 22:00:00,62.0,58.1,30.10,SW,216,0.0,0.0,87,0.00,CLR,,0.00,0.0,WeatherDisplay:10.37,2013-08-16 03:00:00,
2013-08-15 22:05:00,61.8,57.9,30.10,SW,215,0.0,0.0,87,0.00,CLR,,0.00,0.0,WeatherDisplay:10.37,2013-08-16 03:05:00,
2013-08-15 22:10:00,61.6,58.0,30.10,SW,216,0.0,0.0,88,0.00,CLR,,0.00,0.0,WeatherDisplay:10.37,2013-08-16 03:10:00,
2013-08-15 22:15:00,61.4,57.8,30.10,SW,216,0.0,0.0,88,0.00,CLR,,0.00,0.0,WeatherDisplay:10.37,2013-08-16 03:15:00,
2013-08-15 22:20:00,61.3,57.7,30.10,SW,216,0.0,0.0,88,0.00,CLR,,0.00,0.0,WeatherDisplay:10.37,2013-08-16 03:20:00,
2013-08-15 22:25:00,61.2,57.6,30.10,SW,216,0.0,0.0,88,0.00,CLR,,0.00,0.0,WeatherDisplay:10.37,2013-08-16 03:25:00,
2013-08-15 22:30:00,61.0,57.4,30.10,SW,215,0.0,0.0,88,0.00,CLR,,0.00,0.0,WeatherDisplay:10.37,2013-08-16 03:30:00,
2013-08-15 22:35:00,60.9,57.6,30.10,SW,216,0.0,0.0,89,0.00,CLR,,0.00,0.0,WeatherDisplay:10.37,2013-08-16 03:35:00,
2013-08-15 22:40:00,60.8,57.5,30.10,SW,216,0.0,0.0,89,0.00,CLR,,0.00,0.0,WeatherDisplay:10.37,2013-08-16 03:40:00,
2013-08-15 22:45:00,60.5,56.9,30.10,SW,215,0.0,0.0,88,0.00,CLR,,0.00,0.0,WeatherDisplay:10.37,2013-08-16 03:45:00,
2013-08-15 22:50:00,60.3,56.7,30.10,SW,215,0.0,0.0,88,0.00,CLR,,0.00,0.0,WeatherDisplay:10.37,2013-08-16 03:50:00,
2013-08-15 22:55:00,60.2,56.9,30.10,SW,216,0.0,0.0,89,0.00,CLR,,0.00,0.0,WeatherDisplay:10.37,2013-08-16 03:55:00,
2013-08-15 23:00:00,60.0,56.7,30.10,SW,216,0.0,0.0,89,0.00,CLR,,0.00,0.0,WeatherDisplay:10.37,2013-08-16 04:00:00,
2013-08-15 23:01:00,60.0,56.7,30.11,SW,216,0.0,0.0,89,0.00,CLR,,0.00,0.0,WeatherDisplay:10.37,2013-08-16 04:01:00,
2013-08-15 23:02:00,59.9,56.6,30.11,SW,216,0.0,0.0,89,0.00,CLR,,0.00,0.0,WeatherDisplay:10.37,2013-08-16 04:02:00,
2013-08-15 23:03:00,59.9,56.6,30.10,SW,215,0.0,0.0,89,0.00,CLR,,0.00,0.0,WeatherDisplay:10.37,2013-08-16 04:03:00,
2013-08-15 23:08:00,59.8,56.6,30.11,SW,216,0.0,0.0,89,0.00,CLR,,0.00,0.0,WeatherDisplay:10.37,2013-08-16 04:08:00,
2013-08-15 23:13:00,59.7,56.5,30.11,SW,216,0.0,0.0,89,0.00,CLR,,0.00,0.0,WeatherDisplay:10.37,2013-08-16 04:13:00,
2013-08-15 23:18:00,59.6,56.4,30.11,SW,216,0.0,0.0,89,0.00,CLR,,0.00,0.0,WeatherDisplay:10.37,2013-08-16 04:18:00,
2013-08-15 23:23:00,59.5,56.6,30.11,SW,216,0.0,0.0,90,0.00,CLR,,0.00,0.0,WeatherDisplay:10.37,2013-08-16 04:23:00,
2013-08-15 23:28:00,59.4,56.5,30.11,SW,216,0.0,0.0,90,0.00,CLR,,0.00,0.0,WeatherDisplay:10.37,2013-08-16 04:28:00,
2013-08-15 23:33:00,59.4,56.5,30.11,SW,215,0.0,0.0,90,0.00,CLR,,0.00,0.0,WeatherDisplay:10.37,2013-08-16 04:33:00,
2013-08-15 23:38:00,59.2,56.3,30.11,SW,215,0.0,0.0,90,0.00,CLR,,0.00,0.0,WeatherDisplay:10.37,2013-08-16 04:38:00,
2013-08-15 23:43:00,59.1,56.2,30.11,SW,216,0.0,0.0,90,0.00,CLR,,0.00,0.0,WeatherDisplay:10.37,2013-08-16 04:43:00,
2013-08-15 23:48:00,59.1,56.2,30.11,SW,216,0.0,0.0,90,0.00,CLR,,0.00,0.0,WeatherDisplay:10.37,2013-08-16 04:48:00,
2013-08-15 23:53:00,59.1,56.2,30.11,SW,216,0.0,0.0,90,0.00,CLR,,0.00,0.0,WeatherDisplay:10.37,2013-08-16 04:53:00,
2013-08-15 23:58:00,58.8,55.9,30.11,SW,215,0.0,0.0,90,0.00,CLR,,0.00,0.0,WeatherDisplay:10.37,2013-08-16 04:58:00,